TimeEDT,TemperatureF,Dew PointF,Humidity,Sea Level PressureIn,VisibilityMPH,Wind Direction,Wind SpeedMPH,Gust SpeedMPH,PrecipitationIn,Events,Conditions,WindDirDegrees,DateUTC
12:54 AM,64.9,59.0,81,29.97,10.0,SSE,10.4,-,N/A,,Clear,150,2013-04-18 04:54:00
1:54 AM,64.9,57.9,78,29.95,10.0,SSE,10.4,-,N/A,,Clear,150,2013-04-18 05:54:00
2:54 AM,64.9,57.0,75,29.93,10.0,South,11.5,-,N/A,,Clear,170,2013-04-18 06:54:00
3:54 AM,64.0,57.0,78,29.91,10.0,SSE,10.4,-,N/A,,Clear,160,2013-04-18 07:54:00
4:54 AM,64.0,57.0,78,29.91,10.0,South,11.5,-,N/A,,Clear,170,2013-04-18 08:54:00
5:54 AM,64.0,57.0,78,29.92,10.0,South,12.7,-,N/A,,Clear,170,2013-04-18 09:54:00
6:54 AM,64.0,57.9,80,29.92,10.0,South,12.7,21.9,N/A,,Clear,170,2013-04-18 10:54:00
7:54 AM,66.0,57.9,75,29.94,10.0,South,17.3,-,N/A,,Clear,180,2013-04-18 11:54:00
8:54 AM,68.0,60.1,76,29.95,10.0,South,19.6,24.2,N/A,,Clear,180,2013-04-18 12:54:00
9:54 AM,72.0,61.0,68,29.94,10.0,South,19.6,26.5,N/A,,Clear,190,2013-04-18 13:54:00
10:54 AM,75.0,61.0,62,29.93,10.0,South,21.9,29.9,N/A,,Clear,190,2013-04-18 14:54:00
11:54 AM,75.9,61.0,60,29.89,10.0,South,20.7,36.8,N/A,,Clear,180,2013-04-18 15:54:00
12:54 PM,78.1,59.0,52,29.88,10.0,South,29.9,38.0,N/A,,Clear,190,2013-04-18 16:54:00
1:54 PM,79.0,60.1,52,29.86,10.0,South,18.4,34.5,N/A,,Clear,180,2013-04-18 17:54:00
2:54 PM,79.0,57.0,47,29.85,10.0,South,18.4,34.5,N/A,,Clear,180,2013-04-18 18:54:00
3:54 PM,81.0,55.9,42,29.81,10.0,South,19.6,28.8,N/A,,Clear,180,2013-04-18 19:54:00
4:54 PM,79.0,54.0,42,29.79,10.0,South,20.7,29.9,N/A,,Clear,180,2013-04-18 20:54:00
5:54 PM,79.0,55.0,44,29.78,10.0,South,13.8,-,N/A,,Clear,180,2013-04-18 21:54:00
6:54 PM,78.1,52.0,40,29.75,10.0,South,16.1,-,N/A,,Clear,180,2013-04-18 22:54:00
7:54 PM,75.9,51.1,42,29.74,10.0,South,17.3,26.5,N/A,,Clear,180,2013-04-18 23:54:00
8:54 PM,75.0,52.0,44,29.72,10.0,South,19.6,-,N/A,,Clear,170,2013-04-19 00:54:00
9:54 PM,73.9,53.1,48,29.73,10.0,South,16.1,23.0,N/A,,Clear,170,2013-04-19 01:54:00
10:54 PM,73.9,53.1,48,29.69,10.0,South,18.4,25.3,N/A,,Clear,170,2013-04-19 02:54:00
11:54 PM,73.9,54.0,50,29.66,10.0,South,18.4,25.3,N/A,,Clear,180,2013-04-19 03:54:00